Hourly Data Report for September 23, 2004

SHERBROOKE A
QUEBEC

45°26'00.000" N
71°41'00.000" W
241.40 m
7028124
71610
YSC

Download Data

Hourly Data (September 2004)
Hourly Data Report for September 23, 2004
TIME
LST
Temp Definition
°C
Dew Point Definition
°C
Rel Hum Definition
%
Precip. Amount Definition
mm

Wind Dir Definition
10's deg

Wind Spd Definition
km/h
Visibility Definition
km
Stn Press Definition
kPa
Hmdx Definition


Wind Chill Definition


Weather Definition


00:00 15.9 13.7 87   32 13 15.0 99.11      
01:00 14.1 12.2 88   14 6 15.0 99.17      
02:00 13.6 12.1 91   32 6 15.0 99.19      
03:00 12.9 11.6 92   27 7 15.0 99.23      
04:00 12.3 10.7 90   30 11 15.0 99.30      
05:00 10.9 9.8 93   33 4 15.0 99.39      
06:00 9.9 9.0 94   31 7 15.0 99.47      
07:00 11.0 9.9 93   25 6 24.1 99.52     Mainly Clear
08:00 12.5 10.5 88   25 7 24.1 99.56     Mainly Clear
09:00 13.8 10.2 79   30 7 24.1 99.61     Mainly Clear
10:00 15.5 10.0 70   29 9 24.1 99.62     Mainly Clear
11:00 17.1 9.7 62   28 11 24.1 99.63     Clear
12:00 18.0 8.5 54   31 13 24.1 99.61     Clear
13:00 18.9 9.2 53   29 15 24.1 99.55     Clear
14:00 19.4 8.9 51   30 15 24.1 99.54     Clear
15:00 19.5 7.9 47   32 9 24.1 99.49     Clear
16:00 19.1 8.3 50   29 13 24.1 99.49     Clear
17:00 17.4 8.5 56   31 7 15.0 99.52      
18:00 13.8 8.5 70   35 6 15.0 99.54      
19:00 10.4 7.9 84     0 15.0 99.60      
20:00 9.6 7.7 88   12 4 15.0 99.61      
21:00 8.3 7.3 93     0 15.0 99.65      
22:00 7.6 6.8 95   11 4 15.0 99.64      
23:00 6.9 6.2 95   9 4 15.0 99.65      

Notes on Data Quality.

Legend

  • E = Estimated
  • M = Missing
  • NA = Not Available*
  • [empty] = Indicates an unobserved value
Date modified: